Time,TemperatureF,DewpointF,PressureIn,WindDirection,WindDirectionDegrees,WindSpeedMPH,WindSpeedGustMPH,Humidity,HourlyPrecipIn,Conditions,Clouds,dailyrainin,SoftwareType,DateUTC
2013-09-09 00:00:00,0.0,0.0,30.02,NNW,338,0.0,0.0,0,0.00,,,0.00,VWS V13.01,2013-09-09 04:00:00,
2013-09-09 00:30:00,0.0,0.0,30.02,NNW,338,0.0,0.0,0,0.00,,,0.00,VWS V13.01,2013-09-09 04:30:00,
2013-09-09 01:00:00,0.0,0.0,30.03,NNW,338,0.0,0.0,0,0.00,,,0.00,VWS V13.01,2013-09-09 05:00:00,
2013-09-09 01:30:00,0.0,0.0,30.03,NNW,338,0.0,0.0,0,0.00,,,0.00,VWS V13.01,2013-09-09 05:30:00,
2013-09-09 02:00:00,0.0,0.0,30.05,NNW,338,0.0,0.0,0,0.00,,,0.00,VWS V13.01,2013-09-09 06:00:00,
2013-09-09 02:30:00,0.0,0.0,30.06,NNW,338,0.0,0.0,0,0.00,,,0.00,VWS V13.01,2013-09-09 06:30:00,
2013-09-09 03:00:00,0.0,0.0,30.07,NNW,338,0.0,0.0,0,0.00,,,0.00,VWS V13.01,2013-09-09 07:00:00,
2013-09-09 03:30:00,0.0,0.0,30.07,NNW,338,0.0,0.0,0,0.00,,,0.00,VWS V13.01,2013-09-09 07:30:00,
2013-09-09 04:00:00,0.0,0.0,30.08,NW,315,0.0,1.0,0,0.00,,,0.00,VWS V13.01,2013-09-09 08:00:00,
2013-09-09 04:30:00,0.0,0.0,30.09,NW,315,0.0,0.0,0,0.00,,,0.00,VWS V13.01,2013-09-09 08:30:00,
2013-09-09 05:00:00,0.0,0.0,30.10,NW,315,0.0,0.0,0,0.00,,,0.00,VWS V13.01,2013-09-09 09:00:00,
2013-09-09 05:30:00,0.0,0.0,30.11,NW,315,0.0,0.0,0,0.00,,,0.00,VWS V13.01,2013-09-09 09:30:00,
2013-09-09 06:00:00,0.0,0.0,30.12,NW,315,0.0,0.0,0,0.00,,,0.00,VWS V13.01,2013-09-09 10:00:00,
2013-09-09 06:30:00,0.0,0.0,30.14,NW,315,0.0,0.0,0,0.00,,,0.00,VWS V13.01,2013-09-09 10:30:00,
2013-09-09 07:00:00,0.0,0.0,30.14,NW,323,0.0,0.0,0,0.00,,,0.00,VWS V13.01,2013-09-09 11:00:00,
2013-09-09 07:30:00,0.0,0.0,30.15,NW,323,0.0,0.0,0,0.00,,,0.00,VWS V13.01,2013-09-09 11:30:00,
2013-09-09 08:00:00,0.0,0.0,30.15,NW,323,0.0,0.0,0,0.00,,,0.00,VWS V13.01,2013-09-09 12:00:00,
2013-09-09 08:30:00,0.0,0.0,30.16,WNW,294,3.0,7.0,0,0.00,,,0.00,VWS V13.01,2013-09-09 12:30:00,
2013-09-09 09:00:00,0.0,0.0,30.16,WNW,292,5.0,12.0,0,0.00,,,0.00,VWS V13.01,2013-09-09 13:00:00,
2013-09-09 09:30:00,0.0,0.0,30.16,WNW,292,6.0,15.0,0,0.00,,,0.00,VWS V13.01,2013-09-09 13:30:00,
2013-09-09 10:00:00,0.0,0.0,30.15,WNW,292,7.0,17.0,0,0.00,,,0.00,VWS V13.01,2013-09-09 14:00:00,
2013-09-09 10:30:00,0.0,0.0,30.15,WNW,292,8.0,18.0,0,0.00,,,0.00,VWS V13.01,2013-09-09 14:30:00,
2013-09-09 11:00:00,0.0,0.0,30.14,West,270,10.0,17.0,0,0.00,,,0.00,VWS V13.01,2013-09-09 15:00:00,
2013-09-09 11:30:00,0.0,0.0,30.12,West,270,6.0,18.0,0,0.00,,,0.00,VWS V13.01,2013-09-09 15:30:00,